Farmville, Virginia, United States (23901)
Lat: 37.30N, Lon: 78.39W
Wx Zone: VAZ060
Local Info
Past Weather Observations for Today

NOTE: This archive is for the closest National Weather Service station to Farmville. Information may differ from the station used for current weather conditions.

Click here for Long-term Archive

Time Weather Temperature Dewpoint Humidity Pressure Winds Precip Visibility
14:55
Overcast
Thunder Storms
84°F / 29°C 73°F / 23°C 70% 29.89 in
(1012 mb)
SW 9.2 mph
(SW 15 kph)
- 10SM
14:35
Overcast
Thunder Storms
88°F / 31°C 75°F / 24°C 66% 29.89 in
(1012 mb)
SSE 8.1 mph
(SSE 13 kph)
- 10SM
14:15
Mostly Cloudy
Thunder Storms
88°F / 31°C 75°F / 24°C 66% 29.89 in
(1012 mb)
SSE 6.9 mph
(SSE 11 kph)
- 10SM
13:55
Overcast
90°F / 32°C 75°F / 24°C 63% 29.89 in
(1012 mb)
S 6.9 mph
(S 11 kph)
- 10SM
13:35
Mostly Cloudy
90°F / 32°C 75°F / 24°C 63% 29.92 in
(1013 mb)
S 8.1 mph
(S 13 kph)
- 10SM
12:55
Partly Cloudy
90°F / 32°C 75°F / 24°C 63% 29.92 in
(1013 mb)
SSE 5.8 mph
(SSE 9 kph)
- 10SM
12:35
Partly Cloudy
90°F / 32°C 75°F / 24°C 63% 29.92 in
(1013 mb)
S 8.1 mph
(S 13 kph)
- 10SM
12:15
Clear
88°F / 31°C 75°F / 24°C 66% 29.95 in
(1014 mb)
S 8.1 mph
(S 13 kph)
- 10SM
11:55
Clear
88°F / 31°C 75°F / 24°C 66% 29.95 in
(1014 mb)
SSE 4.6 mph
(SSE 7 kph)
- 10SM
11:35
Clear
88°F / 31°C 73°F / 23°C 62% 29.95 in
(1014 mb)
SSE 4.6 mph
(SSE 7 kph)
- 10SM
11:15
Clear
88°F / 31°C 75°F / 24°C 66% 29.95 in
(1014 mb)
SW 8.1 mph
(SW 13 kph)
- 10SM
10:35
Clear
88°F / 31°C 75°F / 24°C 66% 29.95 in
(1014 mb)
SW 5.8 mph
(SW 9 kph)
- 10SM
10:15
Clear
86°F / 30°C 73°F / 23°C 66% 29.95 in
(1014 mb)
S 6.9 mph
(S 11 kph)
- 10SM
09:55
Clear
86°F / 30°C 73°F / 23°C 66% 29.95 in
(1014 mb)
SSE 4.6 mph
(SSE 7 kph)
- 10SM
09:35
Mostly Cloudy
86°F / 30°C 73°F / 23°C 66% 29.95 in
(1014 mb)
S 4.6 mph
(S 7 kph)
- 10SM
09:15
Partly Cloudy
84°F / 29°C 73°F / 23°C 70% 29.95 in
(1014 mb)
S 8.1 mph
(S 13 kph)
- 10SM
08:55
Clear
82°F / 28°C 77°F / 25°C 84% 29.95 in
(1014 mb)
S 5.8 mph
(S 9 kph)
- 10SM
08:35
Clear
82°F / 28°C 77°F / 25°C 84% 29.95 in
(1014 mb)
SW 5.8 mph
(SW 9 kph)
- 10SM
08:15
Clear
81°F / 27°C 77°F / 25°C 89% 29.95 in
(1014 mb)
SW 6.9 mph
(SW 11 kph)
- 10SM
07:55
Clear
81°F / 27°C 77°F / 25°C 89% 29.95 in
(1014 mb)
SW 3.5 mph
(SW 6 kph)
- 10SM
07:35
Clear
79°F / 26°C 77°F / 25°C 94% 29.95 in
(1014 mb)
SSE 6.9 mph
(SSE 11 kph)
- 10SM
07:15
Clear
77°F / 25°C 77°F / 25°C 100% 29.95 in
(1014 mb)
SW 4.6 mph
(SW 7 kph)
- 10SM
06:55
Clear
77°F / 25°C 77°F / 25°C 100% 29.95 in
(1014 mb)
S 4.6 mph
(S 7 kph)
- 10SM
06:35
Clear
75°F / 24°C 75°F / 24°C 100% 29.95 in
(1014 mb)
Calm - 10SM
06:15
Clear
73°F / 23°C 73°F / 23°C 100% 29.95 in
(1014 mb)
Calm - 7SM
05:55
Clear
73°F / 23°C 73°F / 23°C 100% 29.95 in
(1014 mb)
Calm - 7SM
05:35
Clear
73°F / 23°C 73°F / 23°C 100% 29.95 in
(1014 mb)
Calm - 10SM
05:15
Partly Cloudy
72°F / 22°C 72°F / 22°C 100% 29.95 in
(1014 mb)
Calm - 7SM
04:55
Clear
73°F / 23°C 73°F / 23°C 100% 29.95 in
(1014 mb)
Calm - 7SM
04:35
Clear
73°F / 23°C 73°F / 23°C 100% 29.95 in
(1014 mb)
Calm - 10SM
04:15
Clear
72°F / 22°C 72°F / 22°C 100% 29.95 in
(1014 mb)
Calm - 7SM
03:55
Clear
72°F / 22°C 72°F / 22°C 100% 29.95 in
(1014 mb)
Calm - 7SM
03:35
Clear
73°F / 23°C 73°F / 23°C 100% 29.95 in
(1014 mb)
Calm - 7SM
03:15
Clear
Fog And Mist
72°F / 22°C 72°F / 22°C 100% 29.95 in
(1014 mb)
Calm - 5SM
02:55
Clear
Fog And Mist
72°F / 22°C 72°F / 22°C 100% 29.95 in
(1014 mb)
Calm - 4SM
02:35
Clear
Fog And Mist
73°F / 23°C 73°F / 23°C 100% 29.95 in
(1014 mb)
Calm - 2SM
02:15
Partly Cloudy
Fog And Mist
72°F / 22°C 72°F / 22°C 100% 29.95 in
(1014 mb)
Calm - 4SM
01:55
Partly Cloudy
73°F / 23°C 73°F / 23°C 100% 29.98 in
(1015 mb)
Calm - 7SM
01:35
Partly Cloudy
Fog And Mist
72°F / 22°C 72°F / 22°C 100% 29.98 in
(1015 mb)
Calm 0.00 in
(0.00 mm)
5SM
01:15
Mostly Cloudy
73°F / 23°C 73°F / 23°C 100% 29.98 in
(1015 mb)
Calm - 10SM
00:55
Partly Cloudy
72°F / 22°C 72°F / 22°C 100% 29.98 in
(1015 mb)
Calm - 7SM
00:35
Clear
73°F / 23°C 73°F / 23°C 100% 29.98 in
(1015 mb)
Calm - 10SM
00:15
Partly Cloudy
73°F / 23°C 73°F / 23°C 100% 29.98 in
(1015 mb)
Calm - 10SM
Time Weather Temperature Dewpoint Humidity Pressure Winds Precip Visibility


Weather for websites

WeatherForYou.com, LLC is not responsible for any damages or problems caused by this service. Current weather conditions are obtained from the closest station including government and personal stations which may have varying degrees of accuracy. Weather forecasts are derived from the NOAA NDFD. Like all things, this site belongs to Jesus Christ... He just trusts us to maintain it. If you have any questions or comments email webmaster@weatherforyou.com

Copyright © 2015, WeatherForYou.com LLC. All rights reserved.